When you browse on this site, cookies collect data to enhance your experience and personalize the content and advertising you see.
Visit our Privacy Policy to learn more. By continuing to use the site, you agree to this use of cookies and data.
  • In Latvia
  • List of Countries
  • For 7 days
  • Water Temperature
  • Weather Map
  • Weather Widgets
  • user-avatar
    Login

    Hourly Weather Sopron

    Today, 17 September, Tuesday

    Time Temperature Precipitation Wind Pressure Humidity
    00:00 +20°C° 0.1 mm 2 mps 745 mmHg 69%
    01:00 +21°C° 0.1 mm 1 mps 745 mmHg 69%
    02:00 +21°C° 0 mm 1 mps 745 mmHg 69%
    03:00 +20°C° 0 mm 1 mps 745 mmHg 70%
    04:00 +20°C° 0 mm 1 mps 744 mmHg 70%
    05:00 +20°C° 0 mm 1 mps 745 mmHg 70%
    06:00 +20°C° 0 mm 1 mps 745 mmHg 69%
    07:00 +21°C° 0 mm 1 mps 745 mmHg 69%
    08:00 +20°C° 0 mm 2 mps 745 mmHg 66%
    09:00 +21°C° 0 mm 3 mps 745 mmHg 62%
    10:00 +22°C° 0 mm 4 mps 745 mmHg 58%
    11:00 +23°C° 0.1 mm 4 mps 745 mmHg 55%
    12:00 +25°C° 0.1 mm 4 mps 745 mmHg 51%
    13:00 +26°C° 0.1 mm 4 mps 744 mmHg 47%
    14:00 +26°C° 0.1 mm 4 mps 744 mmHg 48%
    15:00 +26°C° 0.1 mm 4 mps 744 mmHg 49%
    16:00 +26°C° 0.1 mm 4 mps 743 mmHg 50%
    17:00 +23°C° 0 mm 4 mps 743 mmHg 55%
    18:00 +22°C° 0 mm 5 mps 743 mmHg 60%
    19:00 +20°C° 0 mm 5 mps 743 mmHg 65%
    20:00 +20°C° 0 mm 5 mps 744 mmHg 65%
    21:00 +19°C° 0 mm 6 mps 744 mmHg 65%
    22:00 +19°C° 0 mm 6 mps 745 mmHg 64%
    23:00 +16°C° 0 mm 6 mps 745 mmHg 63%

    Tomorrow, 18 September, Wednesday

    Time Temperature Precipitation Wind Pressure Humidity
    00:00 +15°C° 0 mm 7 mps 745 mmHg 62%
    01:00 +14°C° 0 mm 7 mps 746 mmHg 61%
    02:00 +12°C° 0 mm 7 mps 746 mmHg 60%
    03:00 +11°C° 0 mm 7 mps 747 mmHg 60%
    04:00 +11°C° 0 mm 7 mps 747 mmHg 59%
    05:00 +10°C° 0 mm 7 mps 748 mmHg 57%
    06:00 +10°C° 0 mm 8 mps 748 mmHg 56%
    07:00 +10°C° 0 mm 8 mps 749 mmHg 54%
    08:00 +11°C° 0 mm 8 mps 750 mmHg 49%
    09:00 +14°C° 0 mm 7 mps 750 mmHg 44%
    10:00 +15°C° 0 mm 7 mps 751 mmHg 38%
    11:00 +16°C° 0 mm 6 mps 750 mmHg 36%
    12:00 +17°C° 0 mm 5 mps 750 mmHg 34%
    13:00 +19°C° 0 mm 5 mps 750 mmHg 32%
    14:00 +19°C° 0 mm 4 mps 750 mmHg 33%
    15:00 +18°C° 0 mm 4 mps 750 mmHg 34%
    16:00 +18°C° 0 mm 3 mps 749 mmHg 35%
    17:00 +16°C° 0 mm 3 mps 750 mmHg 41%
    18:00 +15°C° 0 mm 2 mps 750 mmHg 48%
    19:00 +13°C° 0 mm 1 mps 750 mmHg 54%
    20:00 +12°C° 0 mm 1 mps 750 mmHg 56%
    21:00 +12°C° 0 mm 2 mps 751 mmHg 58%
    22:00 +10°C° 0 mm 2 mps 751 mmHg 59%
    23:00 +10°C° 0 mm 2 mps 751 mmHg 61%

    Day after tomorrow, 19 September, Thursday

    Time Temperature Precipitation Wind Pressure Humidity
    00:00 +9°C° 0 mm 2 mps 751 mmHg 64%
    01:00 +9°C° 0 mm 2 mps 751 mmHg 66%
    02:00 +9°C° 0 mm 2 mps 751 mmHg 67%
    03:00 +8°C° 0 mm 2 mps 751 mmHg 68%
    04:00 +8°C° 0 mm 2 mps 751 mmHg 70%
    05:00 +9°C° 0 mm 2 mps 751 mmHg 67%
    06:00 +9°C° 0 mm 3 mps 752 mmHg 65%
    07:00 +10°C° 0 mm 3 mps 752 mmHg 63%
    08:00 +11°C° 0 mm 4 mps 752 mmHg 58%
    09:00 +12°C° 0 mm 4 mps 752 mmHg 54%
    10:00 +13°C° 0 mm 5 mps 753 mmHg 49%
    11:00 +14°C° 0 mm 5 mps 752 mmHg 46%
    12:00 +15°C° 0 mm 5 mps 752 mmHg 43%
    13:00 +16°C° 0 mm 5 mps 752 mmHg 39%
    14:00 +16°C° 0 mm 5 mps 752 mmHg 39%
    15:00 +16°C° 0 mm 5 mps 752 mmHg 38%
    16:00 +16°C° 0 mm 5 mps 752 mmHg 38%
    17:00 +14°C° 0 mm 5 mps 752 mmHg 43%
    18:00 +12°C° 0 mm 4 mps 752 mmHg 49%
    19:00 +10°C° 0 mm 3 mps 753 mmHg 54%
    20:00 +10°C° 0 mm 3 mps 753 mmHg 57%
    21:00 +9°C° 0 mm 3 mps 754 mmHg 59%
    22:00 +9°C° 0 mm 3 mps 754 mmHg 62%
    23:00 +9°C° 0 mm 3 mps 754 mmHg 64%

    20 September, Friday

    Time Temperature Precipitation Wind Pressure Humidity
    00:00 +8°C° 0 mm 3 mps 754 mmHg 66%
    01:00 +8°C° 0 mm 3 mps 754 mmHg 67%
    02:00 +8°C° 0 mm 3 mps 754 mmHg 69%
    03:00 +8°C° 0 mm 3 mps 754 mmHg 70%
    04:00 +7°C° 0 mm 3 mps 754 mmHg 71%
    05:00 +8°C° 0 mm 3 mps 754 mmHg 69%
    06:00 +9°C° 0 mm 3 mps 754 mmHg 67%
    07:00 +9°C° 0 mm 3 mps 754 mmHg 66%
    08:00 +11°C° 0 mm 3 mps 754 mmHg 59%
    09:00 +13°C° 0 mm 3 mps 754 mmHg 52%
    10:00 +16°C° 0 mm 3 mps 754 mmHg 46%
    11:00 +17°C° 0 mm 3 mps 754 mmHg 43%
    12:00 +17°C° 0 mm 3 mps 754 mmHg 39%
    13:00 +18°C° 0 mm 3 mps 753 mmHg 36%
    14:00 +18°C° 0 mm 2 mps 753 mmHg 36%
    15:00 +18°C° 0 mm 2 mps 753 mmHg 37%
    16:00 +18°C° 0 mm 2 mps 752 mmHg 37%
    17:00 +16°C° 0 mm 2 mps 753 mmHg 43%
    18:00 +14°C° 0 mm 1 mps 753 mmHg 49%
    19:00 +12°C° 0 mm 1 mps 753 mmHg 54%
    20:00 +12°C° 0 mm 1 mps 754 mmHg 57%
    21:00 +11°C° 0 mm 1 mps 754 mmHg 59%
    22:00 +10°C° 0 mm 0 mps 754 mmHg 61%
    23:00 +9°C° 0 mm 0 mps 754 mmHg 62%

    21 September, Saturday

    Time Temperature Precipitation Wind Pressure Humidity
    00:00 +9°C° 0 mm 0 mps 754 mmHg 64%
    01:00 +9°C° 0 mm 0 mps 754 mmHg 65%
    02:00 +8°C° 0 mm 0 mps 754 mmHg 67%
    03:00 +8°C° 0 mm 0 mps 754 mmHg 68%
    04:00 +9°C° 0 mm 1 mps 754 mmHg 70%
    05:00 +9°C° 0 mm 1 mps 754 mmHg 68%
    06:00 +10°C° 0 mm 1 mps 754 mmHg 66%
    07:00 +11°C° 0 mm 1 mps 754 mmHg 65%
    08:00 +13°C° 0 mm 2 mps 754 mmHg 58%
    09:00 +15°C° 0 mm 2 mps 754 mmHg 51%
    10:00 +17°C° 0 mm 3 mps 754 mmHg 44%
    11:00 +18°C° 0 mm 3 mps 754 mmHg 41%
    12:00 +19°C° 0 mm 4 mps 754 mmHg 39%
    13:00 +20°C° 0 mm 4 mps 753 mmHg 36%
    14:00 +20°C° 0 mm 4 mps 753 mmHg 36%
    15:00 +20°C° 0 mm 4 mps 753 mmHg 37%
    16:00 +20°C° 0 mm 4 mps 752 mmHg 37%
    17:00 +18°C° 0 mm 4 mps 752 mmHg 42%
    18:00 +15°C° 0 mm 4 mps 752 mmHg 48%
    19:00 +13°C° 0 mm 3 mps 753 mmHg 53%
    20:00 +13°C° 0 mm 3 mps 753 mmHg 55%
    21:00 +12°C° 0 mm 3 mps 753 mmHg 57%
    22:00 +11°C° 0 mm 3 mps 753 mmHg 59%
    23:00 +11°C° 0 mm 4 mps 753 mmHg 59%

    22 September, Sunday

    Time Temperature Precipitation Wind Pressure Humidity
    00:00 +11°C° 0 mm 4 mps 753 mmHg 59%
    01:00 +11°C° 0 mm 4 mps 753 mmHg 60%
    02:00 +10°C° 0 mm 4 mps 753 mmHg 60%
    03:00 +10°C° 0 mm 4 mps 753 mmHg 60%
    04:00 +8°C° 0 mm 4 mps 753 mmHg 61%
    05:00 +10°C° 0 mm 4 mps 753 mmHg 59%
    06:00 +9°C° 0 mm 5 mps 753 mmHg 57%
    07:00 +10°C° 0 mm 5 mps 753 mmHg 55%
    08:00 +13°C° 0 mm 6 mps 753 mmHg 48%
    09:00 +15°C° 0 mm 6 mps 753 mmHg 42%
    10:00 +18°C° 0 mm 7 mps 753 mmHg 36%
    11:00 +20°C° 0 mm 7 mps 752 mmHg 34%
    12:00 +21°C° 0 mm 7 mps 752 mmHg 32%
    13:00 +22°C° 0 mm 7 mps 752 mmHg 30%
    14:00 +22°C° 0 mm 6 mps 751 mmHg 31%
    15:00 +22°C° 0 mm 6 mps 751 mmHg 32%
    16:00 +22°C° 0 mm 6 mps 751 mmHg 32%
    17:00 +20°C° 0 mm 5 mps 751 mmHg 37%
    18:00 +18°C° 0 mm 4 mps 751 mmHg 43%
    19:00 +15°C° 0 mm 4 mps 751 mmHg 48%
    20:00 +14°C° 0 mm 4 mps 751 mmHg 50%
    21:00 +14°C° 0 mm 4 mps 751 mmHg 52%
    22:00 +13°C° 0 mm 4 mps 751 mmHg 54%
    23:00 +13°C° 0 mm 4 mps 751 mmHg 55%
    Show more